FM-6

Last updated on Tue Sep 16 2025 00:02:48 GMT+0000 (Coordinated Universal Time)

1 39360U 13058A 25258.56152251 -.00000033 00000+0 00000+0 0 9992 2 39360 0.0174 146.6657 0002498 18.6762 275.4175 1.00269522 43301
UTC large
Height (km)
Speed (km/s)
/
Latitude / Longitude
Inclination (degrees)
Orbital Period (minutes)
Azimuth
Elevation
Range (km)
Doppler Factor

Next 0 passes for location: London (51.5072 / 0.1276)

Sorry there are no passes over London.